Weather History for Sandberg, CA

Change the Weather History Date:

Monday, February 18, 2013

  Actual Average Record
Temperature  
Mean Temperature 48 °F 44 °F  
Max Temperature 58 °F 50 °F 72 °F (2014)
Min Temperature 37 °F 38 °F 21 °F (1952)
Degree Days  
Heating Degree Days 17 21  
Month to date heating degree days 300 390  
Since 1 July heating degree days 2143 2555  
Cooling Degree Days 0 0  
Month to date cooling degree days 0 0  
Year to date cooling degree days 0 0  
Moisture  
Dew Point 30 °F    
Average Humidity 56    
Maximum Humidity 93    
Minimum Humidity 19    
Precipitation  
Precipitation 0.00 in 0.14 in 2.13 in (2005)
Month to date precipitation 0.44 1.87  
Year to date precipitation 1.76 4.28  
Since 1 July precipitation 3.13 8.13  
Sea Level Pressure  
Sea Level Pressure 29.92 in    
Wind  
Wind Speed 16 mph (SSW)    
Max Wind Speed 24 mph    
Max Gust Speed 31 mph    
Visibility 6 miles    
Events Fog    
T = Trace of Precipitation, MM = Missing Value Source: NWS Daily Summary

Daily Weather History Graph

Daily Weather History Graph

Search for Another Location

Airport:

Trip Planner

Search our weather history database for the weather conditions in past years. The results will help you decide how hot, cold, wet, or windy it might be!

Date:

Astronomy

Feb. 18, 2013 Rise Set
Actual Time 6:36 AM PST 5:41 PM PST
Civil Twilight 6:11 AM PST 6:06 PM PST
Nautical Twilight 5:41 AM PST 6:36 PM PST
Astronomical Twilight 5:12 AM PST 7:05 PM PST
Moon 11:37 AM PST (2/18) 1:14 AM PST (2/18)
Length of Visible Light 11h 55m
Length of Day
11h 04m
First Quarter, 59% of the Moon is Illuminated
Feb 18
First Quarter
Feb 25
Full
Mar 4
Last Quarter
Mar 11
New
Mar 19
First Quarter

Hourly Weather History & Observations

Time (PST) Temp. Windchill Dew Point Humidity Pressure Visibility Wind Dir Wind Speed Gust Speed Precip Events Conditions
12:48 AM 46.9 °F - 18.0 °F 32% 29.92 in 10.0 mi NNW 17.3 mph - N/A   Clear
1:48 AM - - - N/A% - - North - - N/A   Unknown
2:48 AM 46.0 °F 39.9 °F 23.0 °F 40% 29.91 in 10.0 mi NW 13.8 mph - N/A   Clear
3:48 AM 44.1 °F 38.1 °F 27.0 °F 51% 29.91 in 10.0 mi NW 11.5 mph - N/A   Clear
4:48 AM 41.0 °F 35.8 °F 21.0 °F 45% 29.94 in 10.0 mi SW 8.1 mph - N/A   Clear
5:48 AM 41.0 °F 34.3 °F 25.0 °F 53% 29.95 in 10.0 mi SSW 11.5 mph - N/A   Clear
6:48 AM 42.1 °F 36.6 °F 28.0 °F 58% 29.96 in 10.0 mi South 9.2 mph - N/A   Clear
7:48 AM 45.0 °F 39.3 °F 27.0 °F 49% 29.97 in 10.0 mi South 11.5 mph - N/A   Clear
8:48 AM 48.9 °F - 27.0 °F 43% 29.97 in 10.0 mi South 8.1 mph - N/A   Clear
9:48 AM 53.1 °F - 28.0 °F 38% 29.96 in 10.0 mi South 12.7 mph - N/A   Clear
10:48 AM 53.6 °F - 26.6 °F 35% 30.03 in 10.0 mi South 16.1 mph - N/A   Clear
11:48 AM 55.9 °F - 24.1 °F 29% 29.94 in 10.0 mi South 17.3 mph 28.8 mph N/A   Clear
12:48 PM 55.9 °F - 25.0 °F 30% 29.90 in 10.0 mi South 21.9 mph 27.6 mph N/A   Clear
1:48 PM 55.9 °F - 21.9 °F 27% 29.89 in 10.0 mi South 19.6 mph 28.8 mph N/A   Clear
2:48 PM 55.0 °F - 27.0 °F 34% 29.87 in 10.0 mi South 21.9 mph 28.8 mph N/A   Clear
3:48 PM 53.1 °F - 25.0 °F 34% 29.87 in 10.0 mi South 20.7 mph 29.9 mph N/A   Clear
4:48 PM 51.1 °F - 27.0 °F 39% 29.87 in 10.0 mi South 18.4 mph 25.3 mph N/A   Clear
5:48 PM 44.6 °F 38.4 °F 32.0 °F 61% 29.88 in 10.0 mi South 12.7 mph - N/A   Clear
6:48 PM 43.0 °F 36.4 °F 35.1 °F 74% 29.88 in 10.0 mi South 12.7 mph 21.9 mph N/A   Clear
7:15 PM 42.8 °F 35.4 °F 35.6 °F 76% 29.93 in 8.0 mi SSW 15.0 mph - N/A   Partly Cloudy
7:24 PM 42.8 °F 35.4 °F 35.6 °F 76% 29.93 in 7.0 mi SSW 15.0 mph - N/A   Mostly Cloudy
7:42 PM 42.8 °F 35.1 °F 37.4 °F 81% 29.93 in 5.0 mi South 16.1 mph 21.9 mph N/A   Haze
8:04 PM 41.0 °F 32.8 °F 37.4 °F 87% 29.93 in 1.8 mi SSW 16.1 mph - N/A   Overcast
8:06 PM 41.0 °F 32.5 °F 37.4 °F 87% 29.93 in 1.0 mi South 17.3 mph - N/A   Overcast
8:10 PM 41.0 °F 32.2 °F 37.4 °F 87% 29.93 in 0.5 mi South 18.4 mph 24.2 mph N/A Fog Fog
8:22 PM 42.8 °F 34.3 °F 37.4 °F 81% 29.93 in 0.2 mi South 19.6 mph 25.3 mph N/A Fog Fog
8:43 PM 41.0 °F 31.9 °F 35.6 °F 81% 29.93 in 0.5 mi SSW 19.6 mph 26.5 mph N/A   Haze
8:48 PM 39.9 °F 30.2 °F 36.0 °F 86% 29.87 in 0.8 mi South 20.7 mph 29.9 mph N/A   Mist
8:54 PM 39.2 °F 29.6 °F 35.6 °F 87% 29.93 in 0.2 mi SSW 19.6 mph 29.9 mph N/A Fog Fog
9:48 PM 39.0 °F 28.8 °F 35.1 °F 86% 29.87 in 0.2 mi SSW 21.9 mph 28.8 mph N/A Fog Fog
10:48 PM 37.9 °F 28.5 °F 35.1 °F 89% 29.86 in 0.2 mi SSW 17.3 mph 25.3 mph N/A Fog Fog
11:48 PM 37.0 °F 28.1 °F 33.1 °F 86% 29.86 in 0.2 mi SW 15.0 mph - N/A Fog Fog
11:54 PM 37.4 °F 28.5 °F 33.8 °F 87% 29.92 in 0.8 mi SW 15.0 mph - N/A   Mist